Weather in Novonikolaevka

Ukraine / Kherson District     46°13′39″N   32°44′09″E
temp.,
°C
wind,
m/s
gust,
m/s
humid.,
%
clouds,
%
prec.,
mm/h
press.,
hPa
HPBL,
m
16 april, fri
fri1600:00+7wsw51089100 0.0 1015524
03:00+6sw5119237 0.0 1015344
06:00+5sw489271 0.0 1016152
09:00+10ssw477051 0.1 1016676
12:00+12sw710575 0.9 10161375
15:00+11wsw886345 1.3 10171388
18:00+9w675991 0.1 10181365
21:00+5sw36875 0.1 1019133
17 april, sat
sat1700:00+5sw37915 0.0 1020147
03:00+5ssw36925 0.0 1020120
06:00+5sw34915 0.0 102050
09:00+10ssw45695 0.0 1021584
12:00+12ssw555475 0.0 10221140
15:00+13ssw54473 0.0 10211152
18:00+12ssw32495 0.0 1021635
21:00+7ssw11725 0.0 102113
18 april, sun
sun1800:00+6e347060 0.0 101963
03:00+5ene3579100 0.0 101890
06:00+6ene498183 0.0 1018229
09:00+10e586084 0.0 1018512
12:00+13ese6764100 0.0 10171295
15:00+12e676973 0.1 1016824
18:00+11e6876100 0.0 1016668
21:00+9ese5985100 0.0 1016444
19 april, mon
mon1900:00+8e3694100 0.8 1014305
03:00+9e2394100 0.9 1014188
06:00+9ene239599 0.0 1013146
09:00+10e2390100 0.0 1012324
12:00+13e2276100 0.0 1010694
15:00+13e3475100 0.4 1008650
18:00+11ene4892100 1.8 1004487
21:00+10e61198100 9.4 1000522
20 april, tue
tue2000:00+11sse61597100 0.6 997711
03:00+9sse9148668 0.7 9941005
06:00+9e4694100 0.3 988417
09:00+10w71081100 0.4 9931025
12:00+9w121688100 1.3 9991324
15:00+12wsw121666100 1.8 10041688
18:00+12wsw91467100 0.1 10071190
21:00+9sw81588100 0.1 1011432